Weather in Shchuchye Ozero

Russia / Perm Krai     56°28′16″N   56°38′29″E
temp.,
°C
wind,
m/s
gust,
m/s
humid.,
%
clouds,
%
prec.,
mm/h
press.,
hPa
HPBL,
m
27 february, sat
sat2723:00−19se369496 0.0 1020134
02:00−19se388919 0.0 1017182
05:00−18se498955 0.0 1014248
08:00−17se41083100 0.0 1011331
11:00−14se51094100 0.5 1009420
14:00−12se4992100 0.8 1007523
17:00−11ese4890100 1.1 1007597
20:00−14ese41091100 0.1 1006373
28 february, sun
sun2823:00−15e4109398 0.2 1006332
02:00−14e499183 0.1 1005335
05:00−14ene4109185 0.1 1004360
08:00−14ene4109296 0.1 1004380
11:00−12ene499196 0.3 1004445
14:00−9ene488898 0.1 1005584
17:00−9ene488999 0.3 1006651
20:00−11ene499298 0.1 1008508
1 march, mon
mon123:00−13ne389296 0.2 1010482
02:00−15ne389494 0.1 1012393
05:00−17ne379596 0.3 1014329
08:00−17ne379595 0.2 1015318
11:00−15ne359191 0.2 1017390
14:00−12nne348898 0.0 1017501
17:00−12n249099 0.1 1018454
20:00−18nne229791 0.0 101820
2 march, tue
tue223:00−20ssw0010056 0.0 101920
02:00−21sw2210035 0.0 101820
05:00−21ssw2510064 0.1 1017118
08:00−21ssw48100100 0.1 1015254
11:00−18s51095100 0.1 1013354
14:00−14s51189100 0.0 1010480
17:00−13s51191100 0.1 1008504
20:00−14ssw51293100 0.4 1007579
3 march, wed
wed323:00−14ssw51292100 0.6 1006540
02:00−14s41092100 0.1 1004469
05:00−15s4994100 0.3 1003404
08:00−14s3895100 0.4 1002352
11:00−10sse2594100 1.1 1001346
14:00−6s1389100 0.6 1000463
17:00−5w0094100 1.0 1000205
20:00−8n2596100 0.4 1000151